This demonstration page uses our WeatherBlox Daily Observations layout. Learn more.

Left ArrowRight Arrow

39.08367, -84.50855

Hourly Observations for May 9, 2022

Temp ( °F °C ) Dew Point ( °F °C ) Humidity (%) Winds ( mph kmh ) Pressure ( in mb ) Visibility ( mi km ) Precip ( " mm )
12:53 am 00:53 Clear 52 11.1 50 10 93 93 Calm 30.02 1017 10 16 0.00 0.00
1:53 am 01:53 Clear 51 10.6 50 10 96 96 NE 3 6 30.04 1017 10 16 0.00 0.00
2:53 am 02:53 Clear 49 9.4 48 8.9 97 97 Calm 30.04 1017 10 16 0.00 0.00
3:53 am 03:53 Clear 47 8.3 47 8.3 100 100 Calm 30.04 1017 10 16 0.00 0.00
4:53 am 04:53 Clear 48 8.9 48 8.9 100 100 S 3 6 30.07 1018 10 16 0.00 0.00
5:53 am 05:53 Clear 49 9.4 48 8.9 97 97 Calm 30.08 1019 10 16 0.00 0.00
6:14 am 06:14 Mostly Clear 48 8.9 48 8.9 100 100 Calm 30.10 1019 9 14 0.00 0.00
6:53 am 06:53 Sunny with Mist and Fog 47 8.3 47 8.3 100 100 Calm 30.10 1019 2 3 0.00 0.00
7:01 am 07:01 Sunny 48 8.9 48 8.9 100 100 Calm 30.12 1020 10 16 0.00 0.00
7:53 am 07:53 Sunny 53 11.7 51 10.6 93 93 Calm 30.12 1020 10 16 0.00 0.00
8:53 am 08:53 Sunny 60 15.6 50 10 70 70 SSE 10 17 30.13 1020 10 16 0.00 0.00
9:53 am 09:53 Sunny 64 17.8 51 10.6 63 63 SSE 10 17 30.13 1020 10 16 0.00 0.00
10:53 am 10:53 Sunny 68 20 51 10.6 55 55 SSE 15 24 30.13 1020 10 16 0.00 0.00
11:53 am 11:53 Sunny 69 20.6 51 10.6 53 53 SSE 8 13 30.13 1020 10 16 0.00 0.00
12:53 pm 12:53 Sunny 72 22.2 54 12.2 53 53 SSE 10 17 30.13 1020 10 16 0.00 0.00
1:53 pm 13:53 Sunny 73 22.8 54 12.2 51 51 SE 9 15 30.11 1020 10 16 0.00 0.00
2:53 pm 14:53 Sunny 75 23.9 54 12.2 48 48 SE 10 17 30.09 1019 10 16 0.00 0.00
3:53 pm 15:53 Sunny 76 24.4 54 12.2 47 47 ESE 7 11 30.07 1018 10 16 0.00 0.00
4:53 pm 16:53 Sunny 77 25 53 11.7 43 43 SE 6 9 30.06 1018 10 16 0.00 0.00
5:53 pm 17:53 Sunny 77 25 53 11.7 43 43 SSE 15 24 30.05 1018 10 16 0.00 0.00
6:53 pm 18:53 Sunny 76 24.4 52 11.1 43 43 SSE 8 13 30.05 1018 10 16 0.00 0.00
7:53 pm 19:53 Sunny 74 23.3 52 11.1 46 46 SSE 6 9 30.06 1018 10 16 0.00 0.00
8:53 pm 20:53 Clear 68 20 53 11.7 59 59 SE 5 7 30.06 1018 10 16 0.00 0.00
9:53 pm 21:53 Clear 61 16.1 55 12.8 81 81 Calm 30.08 1019 10 16 0.00 0.00
10:53 pm 22:53 Clear 59 15 55 12.8 87 87 Calm 30.09 1019 10 16 0.00 0.00
11:53 pm 23:53 Clear 58 14.4 54 12.2 87 87 Calm 30.09 1019 10 16 0.00 0.00

Powered by AerisWeather